Regional Weather Roundup
Issued by NWS

Home | Current Version | Previous Version | Graphics & Text | Print | Product List | Glossary On
Versions: 1 2 3 4 5 6 7 8 9 10 11 12 13 14 15 16 17 18 19 20 21 22 23 24 25 26 27 28 29 30 31 32 33 34 35 36 37 38 39 40 41 42 43 44 45 46 47 48 49 50
000
ASUS45 KSLC 011310
RWRUT

UTAH REGIONAL WEATHER ROUNDUP
NATIONAL WEATHER SERVICE SALT LAKE CITY UT
600 AM MST SUN FEB 01 2015

UTZ001>011-023>025-011400-

NORTHERN UTAH

CITY           SKY/WX    TMP DP  RH WIND       PRES   REMARKS
BRIGHAM CITY   CLEAR     27  24  89 CALM      30.21S
HILL AFB       CLEAR     28  23  81 SE9       30.19S WCI  19
LOGAN          CLEAR     23  20  88 CALM      30.21S
OGDEN          CLEAR     28  23  81 S8        30.19S WCI  20
PROVO AIRPORT  CLEAR     25  21  86 CALM      30.21S
SALT LAKE CITY PTCLDY    29  24  82 SE5       30.20R WCI  24
VERNAL         CLEAR     24  19  81 N7        30.10R WCI  16
WENDOVER       PTCLDY    25  19  80 NE6       30.20R WCI  18
HEBER CITY     CLEAR     19  18  93 CALM      30.20S
WEST JORDAN    CLEAR     27  23  86 CALM      30.20S

$$

UTZ012>022-026-027-011400-

SOUTHERN/CENTRAL UTAH

CITY           SKY/WX    TMP DP  RH WIND       PRES   REMARKS
BLANDING       CLEAR     30  29  99 CALM      30.16R
BRYCE CANYON   CLEAR     23  19  85 N8        30.16R WCI  14
CEDAR CITY     CLEAR     23  21  92 CALM      30.19R
DELTA          CLEAR     25  25  99 CALM      30.21S
HANKSVILLE     PTCLDY    27  27 100 CALM      30.14R
MILFORD        PTCLDY    24  22  91 S5        30.21R FOG     WCI  18
MOAB/CYNLANDS  CLOUDY    32  32 100 CALM      30.10R
PRICE          CLEAR     31  16  54 N9        30.12R WCI  23
ST GEORGE      SUNNY     37  28  70 E7        30.17R WCI  32
KANAB          CLEAR     27  27 100 CALM      30.19R

$$

REGIONAL REPORTS     COLORADO/ARIZONA

CITY           SKY/WX    TMP DP  RH WIND       PRES   REMARKS
CRAIG, CO      CLOUDY    12   9  87 E3        30.12R
GRAND JUNCTION CLOUDY    29  29 100 E5        30.12R WCI  24
RIFLE          CLEAR     23  19  85 SE3       30.13R
MONTROSE       MOCLDY    29  25  85 SE8       30.15R WCI  21
CORTEZ         CLEAR     26  22  84 W3        30.06R
PAGE, AZ       NOT AVBL
GRAND CANYON   CLEAR     20  17  88 CALM      30.14R
KINGMAN        CLEAR     38  35  89 E7        30.11R WCI  33
FLAGSTAFF      CLEAR     29  26  89 CALM      30.10R

$$

REGIONAL REPORTS    NEVADA/IDAHO/WYOMING

CITY           SKY/WX    TMP DP  RH WIND       PRES   REMARKS
LAS VEGAS, NV  CLEAR     45  37  73 SW9       30.10R
ELY            CLEAR     20  16  84 S12       30.22S WCI   8
ELKO           PTCLDY    23  19  85 CALM      30.21F
POCATELLO, ID  CLOUDY    29  28  96 N6        30.22R WCI  23
BURLEY         PTCLDY    26  23  88 NE6       30.18F WCI  19
EVANSTON, WY   PTCLDY    21  17  84 SW8       30.14R WCI  11
ROCK SPRINGS   PTCLDY    22  10  60 NW12      30.10R WCI  10

$$


USA.gov is the U.S. government's official web portal to all federal, state and local government web resources and services.